Theta_e
292 299 303 307 307 305 305 302 302 301 300 299 298 297 297 297 297 298 299 300 301 302 302 303 305 305 305 304 305 303 302 302
290 297 300 305 304 303 302 301 300 301 299 297 297 297 297 297 298 299 299 299 301 302 302 303 304 304 305 304 305 303 302 302
292 295 300 301 301 301 300 301 300 300 299 298 297 297 297 297 297 299 299 299 301 301 302 303 304 305 305 304 306 303 301 302
293 293 295 299 298 297 298 299 298 298 298 297 297 297 296 296 297 298 298 299 300 301 301 302 304 305 305 305 305 306 303 303
293 294 294 295 295 296 296 298 298 298 297 296 296 296 296 296 297 297 298 298 299 300 301 302 303 306 307 306 306 307 306 304
292 293 294 294 295 295 295 295 295 295 295 295 295 295 296 295 296 296 296 297 298 299 300 301 303 305 306 305 305 306 307 306
292 292 294 294 295 295 294 294 296 295 295 294 294 294 295 295 294 295 295 296 297 297 299 299 302 299 299 302 304 305 305 305
292 293 294 295 296 295 295 294 294 294 293 293 294 294 294 294 294 294 294 295 296 296 297 298 299 296 297 297 302 304 305 304
289 291 293 294 294 295 294 294 294 293 292 293 293 293 292 293 294 293 294 295 295 295 296 297 298 295 296 294 302 300 304 303
291 290 292 293 294 294 292 293 293 293 293 293 293 292 292 293 292 292 293 293 294 294 295 296 297 293 294 297 302 299 298 301
290 289 291 292 294 293 292 292 292 293 293 293 293 293 292 293 292 290 292 292 291 292 295 292 295 293 294 298 300 299 296 296
288 289 290 291 292 291 290 292 293 290 290 291 292 293 293 293 289 291 289 289 290 290 290 292 293 295 294 295 299 298 293 292
288 288 288 289 291 289 290 291 289 289 289 289 289 291 291 291 288 288 289 288 288 288 287 287 290 291 293 294 297 298 295 292
287 286 284 286 289 288 289 288 287 288 288 288 287 288 289 289 288 288 288 289 289 289 289 288 286 288 292 293 295 294 291 288
283 284 283 282 286 290 285 287 288 288 287 287 288 287 288 289 289 290 289 289 289 289 289 289 287 288 288 289 291 289 288 289
283 283 285 282 282 283 284 287 288 287 287 287 288 288 288 289 289 290 290 291 290 290 291 290 288 289 291 290 288 289 288 286
281 282 284 281 284 282 285 287 288 287 287 288 288 288 288 287 286 289 290 291 292 292 291 287 291 291 291 292 291 291 290 286
285 283 282 281 282 282 284 287 288 288 287 287 287 288 287 287 287 287 289 291 292 292 292 291 289 291 292 291 291 291 290 286
281 282 281 280 281 282 285 286 287 287 287 288 288 288 288 288 288 289 288 287 286 290 291 290 290 290 291 291 290 287 287 286
275 279 276 278 281 282 285 286 287 287 287 288 289 289 289 289 288 288 288 287 287 286 288 288 290 291 291 291 286 287 287 286
Wind_Speed
7 7 7 13 11 11 12 14 14 12 11 10 10 8 7 7 8 8 6 6 6 6 5 4 3 3 4 3 4 5 3 4
6 6 7 11 10 10 12 14 13 12 10 10 9 8 8 8 8 8 6 7 6 6 5 5 4 4 4 3 5 6 5 5
7 7 9 8 8 10 9 10 10 10 10 10 10 9 8 7 7 7 8 6 7 5 5 5 4 4 5 5 5 7 6 6
7 6 8 10 8 8 9 9 9 10 11 10 10 10 8 8 7 7 7 7 6 6 5 6 5 5 5 5 5 6 6 6
6 5 5 5 6 7 7 8 9 10 9 10 10 10 9 8 8 7 7 7 6 6 6 6 5 5 4 5 5 5 6 6
5 5 5 6 5 5 6 7 8 8 8 9 7 7 8 8 7 7 7 7 7 7 5 5 5 4 5 5 5 5 5 6
5 6 6 6 6 7 7 8 8 9 10 9 9 8 8 8 8 7 7 7 6 6 6 6 4 7 9 7 5 5 5 5
7 7 6 7 7 8 9 8 9 8 7 7 9 9 9 8 8 8 8 6 7 6 7 6 5 7 9 9 4 4 4 5
0 4 5 5 6 6 7 9 9 10 9 9 10 9 8 9 9 7 6 8 7 7 6 5 4 6 8 9 5 4 4 5
4 2 5 8 8 7 7 8 9 10 11 11 11 11 10 10 9 6 7 5 5 5 7 6 6 10 7 7 5 5 5 4
6 2 3 5 8 9 8 9 11 11 11 11 11 11 12 11 10 5 5 6 5 6 6 7 6 10 10 7 4 5 4 1
5 2 3 5 8 8 8 14 10 8 8 10 11 12 12 10 6 8 6 7 6 6 6 7 6 7 12 10 5 4 3 3
2 2 4 6 7 8 13 5 7 9 10 10 10 9 8 11 7 7 8 7 6 6 4 1 5 6 12 11 6 7 5 4
2 2 3 5 7 9 7 8 8 9 10 10 9 9 9 11 10 7 7 7 7 6 6 3 2 2 9 10 9 7 4 3
2 2 3 4 7 10 5 7 10 10 9 9 11 10 9 7 9 9 9 8 8 8 6 5 4 4 3 4 4 6 4 5
4 4 7 0 4 3 4 8 9 8 8 9 8 11 10 9 10 10 8 12 12 10 8 9 7 7 8 8 5 4 5 5
5 5 7 4 6 3 6 8 9 9 8 8 8 9 8 8 5 5 8 13 11 14 11 3 7 13 13 12 11 12 14 2
8 6 5 4 6 5 6 9 10 10 10 8 8 9 10 10 10 10 6 11 12 13 14 15 10 16 15 13 12 13 11 2
7 7 5 5 8 5 7 9 9 7 11 10 10 10 10 11 10 10 12 11 7 8 11 14 15 15 16 15 11 6 1 2
4 7 5 6 7 7 8 10 9 8 8 9 8 8 9 9 10 9 10 10 9 7 5 10 17 17 17 18 4 7 6 3
Wind_Direction
161 148 145 166 161 155 163 163 162 161 164 166 163 158 154 153 165 169 169 168 169 172 175 183 156 134 118 92 98 98 102 106
137 129 126 151 149 152 155 154 161 165 160 153 157 155 156 167 169 170 160 164 166 171 172 177 165 148 130 129 114 109 114 113
127 123 140 139 144 152 149 157 166 161 157 161 155 153 161 168 166 162 166 160 159 164 168 173 174 164 150 152 134 126 133 134
125 141 151 160 148 147 154 156 153 154 157 156 160 159 162 163 161 158 155 160 156 155 166 175 181 180 164 163 150 135 143 144
121 137 145 149 150 149 144 150 154 156 161 165 166 167 163 161 159 158 154 150 159 164 173 183 180 183 160 158 146 131 144 150
137 144 145 149 149 145 143 145 148 152 157 168 164 152 144 145 149 147 155 162 162 161 176 177 181 167 164 160 153 153 141 147
149 156 173 175 171 161 160 161 158 163 173 160 149 143 153 148 152 151 157 157 157 167 166 176 192 178 167 153 167 166 155 147
183 189 186 187 174 180 171 149 156 160 156 154 155 156 159 149 149 156 166 150 164 167 169 185 191 178 159 158 163 163 169 154
44 171 193 183 175 152 159 167 168 167 162 159 161 162 150 156 165 153 155 170 170 170 171 171 189 184 161 160 158 172 182 164
297 204 170 178 166 161 169 172 171 178 175 173 168 164 163 166 166 163 153 163 161 156 163 171 189 186 158 158 157 163 195 187
233 245 219 181 157 160 177 180 194 186 180 171 167 166 171 170 167 154 161 166 148 163 175 177 174 178 182 177 153 162 164 165
162 188 230 172 154 178 179 207 195 165 159 168 174 171 171 164 152 157 153 141 157 169 177 176 177 176 188 188 158 160 152 165
171 193 194 177 167 178 219 177 162 161 168 173 171 165 161 159 148 148 147 154 163 159 159 177 169 176 194 192 174 153 163 186
342 333 241 193 188 199 218 159 154 167 180 171 161 163 160 158 159 149 154 160 167 175 183 172 145 141 182 193 185 147 145 154
9 322 283 204 228 232 144 152 161 180 183 169 170 165 163 161 167 167 172 169 166 179 186 175 148 161 163 166 163 136 101 112
256 263 272 164 238 228 188 166 175 176 173 177 178 174 171 177 174 176 181 172 169 186 178 173 179 196 165 156 155 157 142 108
209 241 273 207 264 219 183 187 174 173 174 182 178 176 171 162 123 96 151 156 149 155 161 125 133 154 165 161 163 153 143 97
253 203 226 241 238 201 192 191 192 189 175 172 174 173 170 170 164 150 113 139 146 158 154 161 164 175 163 161 162 159 145 150
229 244 218 201 245 187 183 192 204 190 179 175 176 175 173 174 170 162 161 158 154 175 168 159 165 163 154 149 130 147 167 161
229 253 232 223 229 178 182 194 195 185 182 177 174 172 170 164 161 161 162 161 152 138 153 167 164 154 153 151 147 169 176 165